Date String (YYYY-MM-DD hh:mm:ss) UTC,Instrument flags,Ambient pressure (hPa),Sample flow (lpm),Bypass flow (lpm),Sample temperature (°C),Ambient temperature (°C),ASC tube jacket temperature (°C),LED temperature (°C),Box temperature (°C),Sample RH (%),Span deviation,Mass concentration (μg/m³),Mass concentration (μg/m³),Mass concentration (μg/m³)
DateTimeUTC,F1_M11,P_M11,Q1_M11,Q2_M11,T1_M11,T2_M11,T3_M11,T4_M11,T5_M11,U1_M11,ZSPAN_M11,X0_M11,X2_M11,X1_M11
2023-05-23 06:00:00,,0829.9,5.00,0.00,29.7,28.0,00.0,38.1,31.3,18.3,0003.3,0047.26,0033.57,0031.99
2023-05-23 06:01:00,,0829.9,5.00,0.00,29.8,28.0,00.0,38.1,31.3,17.3,0003.4,0046.17,0032.70,0031.12
2023-05-23 06:02:00,,0829.9,5.00,0.00,29.8,28.0,00.0,38.1,31.3,17.2,0003.5,0044.90,0031.79,0030.30
2023-05-23 06:03:00,,0829.9,5.01,0.00,29.8,28.1,00.0,38.1,31.3,16.5,0003.6,0042.68,0030.63,0029.26
2023-05-23 06:04:00,,0829.9,5.01,0.00,29.8,28.1,00.0,38.1,31.3,16.3,0003.7,0040.91,0029.42,0028.15
2023-05-23 06:05:00,,0829.9,5.00,0.00,29.8,28.1,00.0,38.1,31.3,16.3,0003.8,0039.12,0028.17,0026.96
2023-05-23 06:06:00,,0829.9,5.00,0.00,29.8,28.1,00.0,38.1,31.3,16.5,0003.8,0037.22,0026.95,0025.80
2023-05-23 06:07:00,,0829.9,5.00,0.00,29.8,28.1,00.0,38.1,31.3,16.7,0003.8,0035.71,0025.79,0024.69
2023-05-23 06:08:00,,0830.0,5.00,0.00,29.8,28.1,00.0,38.1,31.4,17.1,0003.8,0034.65,0024.80,0023.77
2023-05-23 06:09:00,,0830.0,4.99,0.00,29.8,28.1,00.0,38.1,31.3,17.6,0003.8,0033.88,0024.11,0023.09
2023-05-23 06:10:00,,0830.0,5.01,0.00,29.8,28.1,00.0,38.1,31.3,16.6,0003.7,0032.74,0023.54,0022.55
2023-05-23 06:11:00,,0830.0,5.01,0.00,29.8,28.1,00.0,38.1,31.4,16.4,0003.7,0031.85,0022.90,0021.95
2023-05-23 06:12:00,,0829.9,5.01,0.00,29.8,28.1,00.0,38.2,31.4,16.6,0003.8,0031.39,0022.63,0021.74
2023-05-23 06:13:00,,0829.9,4.98,0.00,29.8,28.1,00.0,38.2,31.4,17.1,0003.8,0031.11,0022.44,0021.54
2023-05-23 06:14:00,,0829.9,4.99,0.00,29.8,28.1,00.0,38.2,31.4,17.7,0003.7,0031.39,0022.50,0021.58
2023-05-23 06:15:00,,0829.9,5.01,0.00,29.8,28.1,00.0,38.2,31.4,17.8,0003.8,0031.71,0022.76,0021.83
2023-05-23 06:16:00,,0829.9,5.00,0.00,29.8,28.1,00.0,38.2,31.4,18.0,0003.8,0031.88,0023.22,0022.29
2023-05-23 06:17:00,,0830.0,5.01,0.00,29.8,28.1,00.0,38.2,31.4,18.2,0003.8,0032.77,0023.88,0022.91
2023-05-23 06:18:00,,0830.0,5.00,0.00,29.8,28.1,00.0,38.2,31.4,18.2,0003.7,0033.56,0024.48,0023.49
2023-05-23 06:19:00,,0829.9,5.00,0.00,29.8,28.1,00.0,38.2,31.4,18.2,0003.8,0034.14,0025.12,0024.09
2023-05-23 06:20:00,,0829.9,5.00,0.00,29.8,28.1,00.0,38.2,31.3,18.3,0003.8,0034.32,0025.63,0024.59
2023-05-23 06:21:00,,0830.0,5.00,0.00,29.8,28.1,00.0,38.2,31.3,18.5,0003.8,0035.55,0026.43,0025.35
2023-05-23 06:22:00,,0830.0,5.01,0.00,29.8,28.1,00.0,38.2,31.4,18.5,0003.9,0036.79,0027.31,0026.16
2023-05-23 06:23:00,,0830.0,5.00,0.00,29.8,28.1,00.0,38.2,31.4,18.5,0003.8,0038.13,0028.18,0026.96
2023-05-23 06:24:00,,0830.0,4.99,0.00,29.8,28.1,00.0,38.2,31.4,18.3,0003.8,0039.11,0028.93,0027.66
2023-05-23 06:25:00,,0830.0,5.01,0.00,29.8,28.1,00.0,38.2,31.4,18.0,0003.7,0040.10,0029.68,0028.36
2023-05-23 06:26:00,,0830.0,5.00,0.00,29.8,28.1,00.0,38.2,31.3,18.2,0003.7,0041.10,0030.19,0028.86
2023-05-23 06:27:00,,0830.0,5.00,0.00,29.8,28.1,00.0,38.2,31.3,18.1,0003.7,0042.49,0030.46,0029.14
2023-05-23 06:28:00,,0830.0,5.00,0.00,29.8,28.1,00.0,38.2,31.3,18.3,0003.7,0042.71,0030.50,0029.16
2023-05-23 06:29:00,,0830.0,5.00,0.00,29.8,28.0,00.0,38.2,31.3,18.3,0003.8,0043.10,0030.57,0029.22
2023-05-23 06:30:00,,0830.0,5.01,0.00,29.8,28.0,00.0,38.2,31.3,18.1,0003.7,0043.32,0030.46,0029.15
2023-05-23 06:31:00,,0830.0,5.01,0.00,29.8,28.0,00.0,38.2,31.3,18.4,0003.7,0043.37,0030.47,0029.10
2023-05-23 06:32:00,,0830.0,4.98,0.00,29.8,28.1,00.0,38.2,31.3,18.6,0003.8,0043.07,0030.35,0028.95
2023-05-23 06:33:00,,0830.0,5.01,0.00,29.8,28.1,00.0,38.2,31.3,18.5,0003.8,0043.33,0030.25,0028.83
2023-05-23 06:34:00,,0830.0,5.01,0.00,29.8,28.1,00.0,38.2,31.3,18.1,0003.8,0042.94,0030.00,0028.62
2023-05-23 06:35:00,,0830.0,4.98,0.00,29.8,28.1,00.0,38.2,31.3,18.1,0003.9,0042.63,0029.80,0028.42
2023-05-23 06:36:00,,0830.0,5.00,0.00,29.8,28.1,00.0,38.2,31.3,18.1,0003.9,0042.23,0029.55,0028.22
2023-05-23 06:37:00,,0830.0,5.00,0.00,29.8,28.1,00.0,38.2,31.3,18.1,0003.9,0042.14,0029.39,0028.03
2023-05-23 06:38:00,,0830.0,5.01,0.00,29.8,28.0,00.0,38.2,31.3,18.3,0003.9,0041.44,0029.26,0027.85
2023-05-23 06:39:00,,0830.0,5.01,0.00,29.8,28.0,00.0,38.2,31.3,17.8,0003.9,0041.03,0029.12,0027.73
2023-05-23 06:40:00,,0830.0,4.98,0.00,29.8,28.0,00.0,38.2,31.3,17.6,0003.9,0040.60,0028.85,0027.48
2023-05-23 06:41:00,,0830.0,5.00,0.00,29.8,28.1,00.0,38.2,31.4,17.7,0004.0,0039.95,0028.71,0027.32
2023-05-23 06:42:00,,0830.0,5.01,0.00,29.8,28.1,00.0,38.2,31.3,17.9,0004.1,0039.72,0028.54,0027.18
2023-05-23 06:43:00,,0830.0,5.01,0.00,29.8,28.1,00.0,38.2,31.3,18.0,0004.1,0039.42,0028.34,0027.02
2023-05-23 06:44:00,,0830.0,5.01,0.00,29.8,28.1,00.0,38.2,31.3,17.8,0004.1,0038.71,0028.10,0026.80
2023-05-23 06:45:00,,0830.0,4.98,0.00,29.8,28.1,00.0,38.2,31.3,17.7,0004.0,0038.44,0027.92,0026.59
2023-05-23 06:46:00,,0830.0,5.01,0.00,29.8,28.0,00.0,38.2,31.3,17.8,0004.0,0038.32,0027.72,0026.41
2023-05-23 06:47:00,,0830.0,5.01,0.00,29.8,28.0,00.0,38.2,31.3,17.5,0004.0,0038.05,0027.52,0026.18
2023-05-23 06:48:00,,0830.0,5.01,0.00,29.8,28.1,00.0,38.2,31.4,17.7,0004.0,0037.27,0027.28,0025.96
2023-05-23 06:49:00,,0830.0,4.98,0.00,29.8,28.0,00.0,38.2,31.3,17.5,0004.1,0037.01,0027.11,0025.82
2023-05-23 06:50:00,,0830.0,5.00,0.00,29.8,28.0,00.0,38.2,31.3,17.5,0004.0,0037.01,0026.90,0025.62
2023-05-23 06:51:00,,0830.0,5.00,0.00,29.8,28.0,00.0,38.2,31.3,17.4,0004.0,0036.61,0026.72,0025.47
2023-05-23 06:52:00,,0830.0,5.01,0.00,29.8,28.0,00.0,38.2,31.3,17.1,0004.0,0036.25,0026.44,0025.25
2023-05-23 06:53:00,,0830.0,5.01,0.00,29.8,28.0,00.0,38.2,31.3,17.2,0003.9,0035.94,0026.18,0025.00
2023-05-23 06:54:00,,0830.0,4.99,0.00,29.8,28.1,00.0,38.2,31.3,17.3,0003.9,0035.72,0025.93,0024.75
2023-05-23 06:55:00,,0830.0,4.99,0.00,29.8,28.1,00.0,38.2,31.3,17.3,0003.9,0035.80,0025.72,0024.57
2023-05-23 06:56:00,,0830.0,5.01,0.00,29.8,28.0,00.0,38.2,31.3,17.4,0003.9,0035.45,0025.57,0024.48
2023-05-23 06:57:00,,0830.0,5.00,0.00,29.8,28.0,00.0,38.2,31.3,17.5,0003.8,0035.34,0025.46,0024.40
2023-05-23 06:58:00,,0829.9,4.99,0.00,29.8,28.0,00.0,38.2,31.3,17.4,0003.7,0036.67,0025.41,0024.36
2023-05-23 06:59:00,,0829.9,4.98,0.00,29.8,28.0,00.0,38.1,31.3,17.5,0003.7,0036.94,0025.43,0024.39
